When you browse on this site, cookies collect data to enhance your experience and personalize the content and advertising you see.
Visit our Privacy Policy to learn more. By continuing to use the site, you agree to this use of cookies and data.
  • In Austria
  • List of Countries
  • For 7 days
  • Water Temperature
  • Satellite Maps
  • Weather Map
  • News
  • Weather Widgets
  • user-avatar
    Login

    Hourly Weather Aleksandria

    Today, 10 December, Monday

    Time Temperature Precipitation Wind Pressure Humidity
    00:00 +16°C° 0 mm 6 mps 764 mmHg 64%
    01:00 +15°C° 0 mm 7 mps 763 mmHg 65%
    02:00 +15°C° 0 mm 7 mps 763 mmHg 66%
    03:00 +15°C° 0.1 mm 7 mps 763 mmHg 67%
    04:00 +15°C° 0.1 mm 7 mps 763 mmHg 68%
    05:00 +15°C° 0.1 mm 7 mps 763 mmHg 69%
    06:00 +15°C° 0.1 mm 7 mps 763 mmHg 68%
    07:00 +15°C° 0.1 mm 7 mps 763 mmHg 67%
    08:00 +16°C° 0.1 mm 7 mps 763 mmHg 67%
    09:00 +17°C° 0 mm 7 mps 763 mmHg 62%
    10:00 +18°C° 0 mm 7 mps 763 mmHg 58%
    11:00 +20°C° 0 mm 8 mps 763 mmHg 54%
    12:00 +20°C° 0 mm 8 mps 763 mmHg 52%
    13:00 +21°C° 0 mm 8 mps 762 mmHg 50%
    14:00 +21°C° 0 mm 8 mps 762 mmHg 48%
    15:00 +20°C° 0 mm 7 mps 762 mmHg 51%
    16:00 +18°C° 0 mm 7 mps 762 mmHg 53%
    17:00 +19°C° 0 mm 6 mps 762 mmHg 56%
    18:00 +17°C° 0 mm 6 mps 762 mmHg 58%
    19:00 +17°C° 0 mm 6 mps 762 mmHg 59%
    20:00 +17°C° 0 mm 6 mps 763 mmHg 61%
    21:00 +16°C° 0 mm 7 mps 763 mmHg 63%
    22:00 +16°C° 0 mm 7 mps 762 mmHg 64%
    23:00 +16°C° 0 mm 7 mps 762 mmHg 65%

    Tomorrow, 11 December, Tuesday

    Time Temperature Precipitation Wind Pressure Humidity
    00:00 +16°C° 0 mm 7 mps 762 mmHg 66%
    01:00 +16°C° 0 mm 8 mps 762 mmHg 67%
    02:00 +16°C° 0 mm 8 mps 762 mmHg 68%
    03:00 +16°C° 0 mm 8 mps 762 mmHg 69%
    04:00 +16°C° 0 mm 8 mps 762 mmHg 70%
    05:00 +15°C° 0 mm 8 mps 762 mmHg 72%
    06:00 +16°C° 0.1 mm 8 mps 762 mmHg 71%
    07:00 +16°C° 0.1 mm 8 mps 762 mmHg 71%
    08:00 +16°C° 0.1 mm 8 mps 763 mmHg 70%
    09:00 +17°C° 0.1 mm 8 mps 763 mmHg 66%
    10:00 +18°C° 0.1 mm 8 mps 763 mmHg 61%
    11:00 +21°C° 0.1 mm 8 mps 763 mmHg 57%
    12:00 +21°C° 0 mm 8 mps 763 mmHg 54%
    13:00 +21°C° 0 mm 8 mps 763 mmHg 51%
    14:00 +22°C° 0 mm 9 mps 762 mmHg 48%
    15:00 +21°C° 0 mm 8 mps 762 mmHg 50%
    16:00 +20°C° 0 mm 7 mps 762 mmHg 52%
    17:00 +20°C° 0 mm 7 mps 763 mmHg 55%
    18:00 +19°C° 0 mm 6 mps 763 mmHg 56%
    19:00 +19°C° 0 mm 6 mps 763 mmHg 58%
    20:00 +17°C° 0 mm 6 mps 764 mmHg 60%
    21:00 +17°C° 0 mm 6 mps 764 mmHg 60%
    22:00 +17°C° 0 mm 6 mps 764 mmHg 61%
    23:00 +17°C° 0 mm 6 mps 764 mmHg 62%

    Day after tomorrow, 12 December, Wednesday

    Time Temperature Precipitation Wind Pressure Humidity
    00:00 +16°C° 0 mm 6 mps 764 mmHg 63%
    01:00 +16°C° 0 mm 6 mps 764 mmHg 63%
    02:00 +16°C° 0 mm 6 mps 763 mmHg 64%
    03:00 +16°C° 0 mm 7 mps 763 mmHg 64%
    04:00 +15°C° 0 mm 7 mps 763 mmHg 65%
    05:00 +15°C° 0 mm 7 mps 763 mmHg 66%
    06:00 +15°C° 0.1 mm 7 mps 763 mmHg 65%
    07:00 +16°C° 0.1 mm 7 mps 764 mmHg 65%
    08:00 +16°C° 0.1 mm 7 mps 764 mmHg 64%
    09:00 +17°C° 0.2 mm 7 mps 764 mmHg 62%
    10:00 +18°C° 0.2 mm 7 mps 765 mmHg 60%
    11:00 +21°C° 0.2 mm 7 mps 765 mmHg 58%
    12:00 +21°C° 0.2 mm 7 mps 764 mmHg 59%
    13:00 +21°C° 0.2 mm 7 mps 764 mmHg 59%
    14:00 +21°C° 0.2 mm 6 mps 764 mmHg 60%
    15:00 +20°C° 0.1 mm 6 mps 764 mmHg 64%
    16:00 +20°C° 0.1 mm 5 mps 764 mmHg 67%
    17:00 +19°C° 0.1 mm 5 mps 764 mmHg 70%
    18:00 +19°C° 0.1 mm 5 mps 764 mmHg 70%
    19:00 +19°C° 0.1 mm 5 mps 765 mmHg 70%
    20:00 +19°C° 0.1 mm 4 mps 765 mmHg 70%
    21:00 +19°C° 0.1 mm 4 mps 765 mmHg 70%
    22:00 +18°C° 0.1 mm 4 mps 765 mmHg 70%
    23:00 +18°C° 0.1 mm 4 mps 765 mmHg 69%

    13 December, Thursday

    Time Temperature Precipitation Wind Pressure Humidity
    00:00 +18°C° 0 mm 4 mps 765 mmHg 70%
    01:00 +18°C° 0 mm 3 mps 765 mmHg 71%
    02:00 +17°C° 0 mm 3 mps 765 mmHg 71%
    03:00 +17°C° 0.1 mm 3 mps 765 mmHg 72%
    04:00 +17°C° 0.1 mm 3 mps 765 mmHg 73%
    05:00 +17°C° 0.1 mm 2 mps 766 mmHg 74%
    06:00 +17°C° 0.1 mm 2 mps 766 mmHg 74%
    07:00 +17°C° 0.1 mm 2 mps 766 mmHg 75%
    08:00 +17°C° 0.1 mm 2 mps 767 mmHg 75%
    09:00 +18°C° 0.2 mm 2 mps 767 mmHg 72%
    10:00 +19°C° 0.2 mm 2 mps 767 mmHg 69%
    11:00 +20°C° 0.2 mm 1 mps 767 mmHg 66%
    12:00 +20°C° 0.1 mm 2 mps 767 mmHg 63%
    13:00 +20°C° 0.1 mm 2 mps 766 mmHg 61%
    14:00 +20°C° 0.1 mm 2 mps 766 mmHg 58%
    15:00 +20°C° 0 mm 2 mps 766 mmHg 61%
    16:00 +19°C° 0 mm 2 mps 766 mmHg 63%
    17:00 +19°C° 0 mm 2 mps 766 mmHg 65%
    18:00 +18°C° 0 mm 2 mps 766 mmHg 67%
    19:00 +19°C° 0 mm 1 mps 767 mmHg 69%
    20:00 +18°C° 0 mm 1 mps 767 mmHg 71%
    21:00 +18°C° 0 mm 1 mps 767 mmHg 72%
    22:00 +18°C° 0 mm 1 mps 767 mmHg 74%
    23:00 +16°C° 0 mm 2 mps 767 mmHg 75%

    14 December, Friday

    Time Temperature Precipitation Wind Pressure Humidity
    00:00 +16°C° 0 mm 2 mps 767 mmHg 76%
    01:00 +16°C° 0 mm 2 mps 767 mmHg 77%
    02:00 +16°C° 0 mm 2 mps 767 mmHg 79%
    03:00 +15°C° 0 mm 2 mps 766 mmHg 79%
    04:00 +15°C° 0 mm 2 mps 766 mmHg 79%
    05:00 +14°C° 0 mm 3 mps 766 mmHg 80%
    06:00 +14°C° 0 mm 3 mps 766 mmHg 78%
    07:00 +16°C° 0 mm 3 mps 767 mmHg 77%
    08:00 +16°C° 0 mm 3 mps 767 mmHg 75%
    09:00 +17°C° 0 mm 3 mps 767 mmHg 68%
    10:00 +19°C° 0 mm 2 mps 767 mmHg 61%
    11:00 +20°C° 0 mm 2 mps 767 mmHg 54%
    12:00 +21°C° 0 mm 2 mps 766 mmHg 52%
    13:00 +21°C° 0 mm 2 mps 766 mmHg 49%
    14:00 +21°C° 0 mm 2 mps 765 mmHg 46%
    15:00 +21°C° 0 mm 2 mps 765 mmHg 50%
    16:00 +20°C° 0 mm 2 mps 765 mmHg 53%
    17:00 +19°C° 0 mm 2 mps 765 mmHg 56%
    18:00 +19°C° 0 mm 2 mps 765 mmHg 60%
    19:00 +19°C° 0 mm 1 mps 766 mmHg 64%
    20:00 +18°C° 0 mm 1 mps 766 mmHg 68%
    21:00 +18°C° 0 mm 1 mps 765 mmHg 71%
    22:00 +17°C° 0 mm 2 mps 765 mmHg 75%
    23:00 +16°C° 0 mm 2 mps 765 mmHg 78%

    15 December, Saturday

    Time Temperature Precipitation Wind Pressure Humidity
    00:00 +16°C° 0 mm 2 mps 765 mmHg 80%
    01:00 +15°C° 0 mm 2 mps 765 mmHg 82%
    02:00 +15°C° 0 mm 2 mps 764 mmHg 83%
    03:00 +15°C° 0 mm 2 mps 764 mmHg 83%
    04:00 +15°C° 0 mm 2 mps 764 mmHg 82%
    05:00 +15°C° 0 mm 2 mps 764 mmHg 82%
    06:00 +15°C° 0 mm 2 mps 764 mmHg 79%
    07:00 +15°C° 0 mm 2 mps 764 mmHg 77%
    08:00 +16°C° 0 mm 2 mps 764 mmHg 75%
    09:00 +17°C° 0 mm 2 mps 763 mmHg 68%
    10:00 +19°C° 0 mm 3 mps 763 mmHg 61%
    11:00 +20°C° 0 mm 3 mps 763 mmHg 54%
    12:00 +20°C° 0 mm 3 mps 762 mmHg 51%
    13:00 +21°C° 0 mm 3 mps 762 mmHg 48%
    14:00 +21°C° 0 mm 3 mps 761 mmHg 45%
    15:00 +21°C° 0 mm 3 mps 761 mmHg 46%
    16:00 +20°C° 0 mm 3 mps 761 mmHg 48%
    17:00 +19°C° 0 mm 3 mps 761 mmHg 49%
    18:00 +19°C° 0 mm 3 mps 761 mmHg 51%
    19:00 +18°C° 0 mm 3 mps 761 mmHg 52%
    20:00 +17°C° 0 mm 3 mps 761 mmHg 53%
    21:00 +17°C° 0 mm 4 mps 761 mmHg 54%
    22:00 +17°C° 0 mm 4 mps 761 mmHg 54%
    23:00 +15°C° 0 mm 5 mps 761 mmHg 54%
    Show more